Regional Weather Roundup
Issued by NWS

Home | Current Version | Previous Version | Text Only | Print | Product List | Glossary On
Versions: 1 2 3 4 5 6 7 8 9 10 11 12 13 14 15 16 17 18 19 20 21 22 23 24 25 26 27 28 29 30 31 32 33 34 35 36 37 38 39 40 41 42 43 44 45 46 47 48 49 50
000
ASUS43 KFSD 192210
RWRSD

WEATHER ROUNDUP FOR SOUTH DAKOTA
NATIONAL WEATHER SERVICE SIOUX FALLS SD
500 PM CDT FRI SEP 19 2014

NOTE: "FAIR" INDICATES FEW OR NO CLOUDS BELOW 12,000 FEET WITH NO
SIGNIFICANT WEATHER AND/OR OBSTRUCTIONS TO VISIBILITY.


SDZ001>005-009-010-012>017-192300-
NORTHWEST AND NORTH CENTRAL SOUTH DAKOTA

CITY           SKY/WX    TMP DP  RH WIND       PRES   REMARKS
BUFFALO          N/A     79  45  29 W25G35    29.77R
FAITH            N/A     82  50  32 NW16      29.78R
MOBRIDGE       SUNNY     84  55  36 NW12      29.66S
$$

SDZ012>016-024>037-041>051-057-063-072>074-192300-
SOUTHWEST AND SOUTH CENTRAL SOUTH DAKOTA

CITY           SKY/WX    TMP DP  RH WIND       PRES   REMARKS
RAPID CTY ARPT PTSUNNY   81  49  32 N12       29.83S
PIERRE         MOSUNNY   86  55  34 W12       29.70R
CUSTER         MOSUNNY   77  38  24 N6        29.97S
ELLSWORTH AFB  PTSUNNY   81  49  32 N8        29.83S
PHILIP         PTSUNNY   85  54  34 N9        29.75R
PINE RIDGE     SUNNY     86  51  29 W10       29.82S
WINNER         FAIR      87  53  31 W9        29.74F
$$

SDZ004>011-016>023-039-040-192300-
NORTHEAST SOUTH DAKOTA

CITY           SKY/WX    TMP DP  RH WIND       PRES   REMARKS
ABERDEEN       MOSUNNY   84  62  47 W13       29.63F
WATERTOWN      PTSUNNY   78  64  61 SW9       29.67S
SISSETON         N/A     78  65  63 VRB5      29.61S
$$

SDZ017-020-022-023-036>040-048>070-192300-
SOUTHEAST SOUTH DAKOTA

CITY           SKY/WX    TMP DP  RH WIND       PRES   REMARKS
SIOUX FALLS    MOSUNNY   86  64  47 SW8       29.69S
HURON          PTSUNNY   85  62  46 SW5       29.66S
CHAMBERLAIN    MOSUNNY   87  59  38 W8        29.71S
MITCHELL       MOSUNNY   88  61  40 SW9       29.68S
YANKTON        SUNNY     90  64  43 SW10      29.69S
$$

ABBREVIATIONS USED IN REMARKS
   TC - TEMPERATURE IN CELSIUS
  WCI - WIND CHILL INDEX
   HX - HEAT INDEX
  VSB - VISIBILITY



USA.gov is the U.S. government's official web portal to all federal, state and local government web resources and services.